Time,TemperatureF,DewpointF,PressureIn,WindDirection,WindDirectionDegrees,WindSpeedMPH,WindSpeedGustMPH,Humidity,HourlyPrecipIn,Conditions,Clouds,dailyrainin,SoftwareType,DateUTC
2013-09-01 00:05:00,71.1,65.7,29.87,North,0,0.0,0.0,79,0.00,NA,NA,0.00,meteo_script,2013-09-01 05:05:00,
2013-09-01 00:35:00,69.8,64.7,29.87,North,0,0.0,0.0,79,0.00,NA,NA,0.00,meteo_script,2013-09-01 05:35:00,
2013-09-01 01:05:00,68.8,64.3,29.89,North,0,0.0,0.0,82,0.00,NA,NA,0.00,meteo_script,2013-09-01 06:05:00,
2013-09-01 01:35:00,68.6,64.6,29.88,North,0,0.0,0.0,84,0.00,NA,NA,0.00,meteo_script,2013-09-01 06:35:00,
2013-09-01 02:05:00,68.2,64.3,29.87,North,0,0.0,0.0,84,0.00,NA,NA,0.00,meteo_script,2013-09-01 07:05:00,
2013-09-01 02:35:00,68.5,64.2,29.85,North,0,0.0,0.0,82,0.00,NA,NA,0.00,meteo_script,2013-09-01 07:35:00,
2013-09-01 03:05:00,67.3,63.7,29.83,NE,52,0.1,2.0,85,0.00,NA,NA,0.00,meteo_script,2013-09-01 08:05:00,
2013-09-01 03:35:00,67.3,64.2,29.85,North,0,0.0,0.0,87,0.00,NA,NA,0.00,meteo_script,2013-09-01 08:35:00,
2013-09-01 04:05:00,66.8,63.7,29.86,SW,214,0.1,1.0,87,0.00,NA,NA,0.00,meteo_script,2013-09-01 09:05:00,
2013-09-01 04:35:00,66.5,63.4,29.86,SW,214,0.2,1.0,87,0.00,NA,NA,0.00,meteo_script,2013-09-01 09:35:00,
2013-09-01 05:05:00,66.1,63.0,29.84,SW,214,0.0,1.0,87,0.00,NA,NA,0.00,meteo_script,2013-09-01 10:05:00,
2013-09-01 05:35:00,65.7,62.9,29.86,SW,215,0.8,2.0,88,0.00,NA,NA,0.00,meteo_script,2013-09-01 10:35:00,
2013-09-01 06:05:00,65.4,62.8,29.85,SW,214,2.2,4.0,89,0.00,NA,NA,0.00,meteo_script,2013-09-01 11:05:00,
2013-09-01 06:35:00,65.0,62.4,29.86,SSW,213,0.9,2.0,89,0.00,NA,NA,0.00,meteo_script,2013-09-01 11:35:00,
2013-09-01 07:05:00,65.2,62.8,29.85,SSW,210,2.2,5.0,89,0.00,NA,NA,0.00,meteo_script,2013-09-01 12:05:00,
2013-09-01 07:35:00,65.7,63.4,29.85,West,271,2.7,5.0,90,0.00,NA,NA,0.00,meteo_script,2013-09-01 12:35:00,
2013-09-01 08:05:00,66.4,64.3,29.83,West,269,0.1,1.0,91,0.00,NA,NA,0.00,meteo_script,2013-09-01 13:05:00,
2013-09-01 08:35:00,67.6,65.4,29.84,West,263,0.1,1.0,90,0.00,NA,NA,0.00,meteo_script,2013-09-01 13:35:00,
2013-09-01 09:05:00,67.9,65.4,29.86,West,260,0.7,4.0,89,0.00,NA,NA,0.00,meteo_script,2013-09-01 14:05:00,
2013-09-01 09:35:00,68.6,66.2,29.86,West,260,2.7,5.0,89,0.00,NA,NA,0.00,meteo_script,2013-09-01 14:35:00,
2013-09-01 10:05:00,69.4,66.5,29.86,West,269,1.2,3.0,88,0.00,NA,NA,0.00,meteo_script,2013-09-01 15:05:00,
2013-09-01 10:35:00,70.4,67.5,29.86,West,268,0.3,1.0,88,0.00,NA,NA,0.00,meteo_script,2013-09-01 15:35:00,
2013-09-01 11:05:00,72.5,68.4,29.85,West,269,1.2,6.0,84,0.00,NA,NA,0.00,meteo_script,2013-09-01 16:05:00,
2013-09-01 11:35:00,73.2,68.6,29.83,West,264,0.2,2.0,82,0.00,NA,NA,0.00,meteo_script,2013-09-01 16:35:00,
2013-09-01 12:05:00,73.3,68.9,29.83,West,269,0.1,1.0,82,0.00,NA,NA,0.00,meteo_script,2013-09-01 17:05:00,
2013-09-01 12:35:00,74.3,69.7,29.82,SSW,202,0.5,2.0,82,0.00,NA,NA,0.00,meteo_script,2013-09-01 17:35:00,
2013-09-01 13:05:00,75.6,70.1,29.82,WSW,251,0.8,4.0,79,0.00,NA,NA,0.00,meteo_script,2013-09-01 18:05:00,
2013-09-01 13:35:00,76.7,70.5,29.82,West,276,1.2,3.0,77,0.00,NA,NA,0.00,meteo_script,2013-09-01 18:35:00,
2013-09-01 14:05:00,78.1,70.6,29.81,WSW,257,0.5,2.0,73,0.00,NA,NA,0.00,meteo_script,2013-09-01 19:05:00,
2013-09-01 14:35:00,81.6,70.8,29.81,West,260,3.1,8.0,63,0.00,NA,NA,0.00,meteo_script,2013-09-01 19:35:00,
2013-09-01 15:05:00,82.4,70.5,29.80,West,267,2.5,7.0,61,0.00,NA,NA,0.00,meteo_script,2013-09-01 20:05:00,
2013-09-01 15:35:00,83.9,70.4,29.80,West,267,2.5,7.0,57,0.00,NA,NA,0.00,meteo_script,2013-09-01 20:35:00,
2013-09-01 16:05:00,84.9,70.8,29.79,WSW,256,5.4,11.0,55,0.00,NA,NA,0.00,meteo_script,2013-09-01 21:05:00,
2013-09-01 16:35:00,83.4,70.2,29.80,WSW,250,1.0,4.0,58,0.00,NA,NA,0.00,meteo_script,2013-09-01 21:35:00,
2013-09-01 17:05:00,83.2,69.7,29.80,West,260,5.6,12.0,57,0.00,NA,NA,0.00,meteo_script,2013-09-01 22:05:00,
2013-09-01 17:35:00,81.4,67.6,29.80,West,279,0.0,1.0,56,0.00,NA,NA,0.00,meteo_script,2013-09-01 22:35:00,
2013-09-01 18:05:00,81.8,64.4,29.81,West,272,1.5,4.0,47,0.00,NA,NA,0.00,meteo_script,2013-09-01 23:05:00,
2013-09-01 18:35:00,81.3,63.2,29.82,WNW,299,0.6,3.0,46,0.00,NA,NA,0.00,meteo_script,2013-09-01 23:35:00,
2013-09-01 19:05:00,80.3,63.2,29.83,NNW,338,1.5,4.0,48,0.00,NA,NA,0.00,meteo_script,2013-09-02 00:05:00,
2013-09-01 19:35:00,78.1,61.9,29.84,NNW,327,0.5,2.0,49,0.00,NA,NA,0.00,meteo_script,2013-09-02 00:35:00,
2013-09-01 20:05:00,76.3,61.8,29.85,NNW,346,0.1,1.0,53,0.00,NA,NA,0.00,meteo_script,2013-09-02 01:05:00,
2013-09-01 20:35:00,74.7,60.7,29.85,North,0,1.6,3.0,54,0.00,NA,NA,0.00,meteo_script,2013-09-02 01:35:00,
2013-09-01 21:05:00,73.5,60.3,29.86,North,0,0.0,1.0,56,0.00,NA,NA,0.00,meteo_script,2013-09-02 02:05:00,
2013-09-01 21:35:00,72.2,60.0,29.87,North,0,0.0,0.0,58,0.00,NA,NA,0.00,meteo_script,2013-09-02 02:35:00,
2013-09-01 22:05:00,71.3,59.5,29.89,North,0,0.0,0.0,59,0.00,NA,NA,0.00,meteo_script,2013-09-02 03:05:00,
2013-09-01 22:35:00,70.3,59.3,29.90,North,0,0.0,0.0,61,0.00,NA,NA,0.00,meteo_script,2013-09-02 03:35:00,
2013-09-01 23:05:00,69.5,59.2,29.90,North,0,0.0,0.0,63,0.00,NA,NA,0.00,meteo_script,2013-09-02 04:05:00,
2013-09-01 23:35:00,69.0,59.4,29.91,North,0,0.0,0.0,65,0.00,NA,NA,0.00,meteo_script,2013-09-02 04:35:00,